Powrót do katalogu

IRIDE-MS1-EAG2-12

AktywnyNaukaSSO
NORAD 68461·PAYLOAD·🇬🇧 United Kingdom

Wystrzelony Mar 30, 2026 z Vandenberg Space Force Base

Loading…

Następne Przeloty (najbliższe 24 godziny)

TLE

ŚwieżeSource: Space-Track

Epoka: Sep 14, 2026, 07:30 UTC

1 68461U 26067AX  26257.31304449  .00005583  00000-0  26933-3 0  9993
2 68461  97.4644 214.5485 0005986 104.8766 255.3131 15.19078180 25467

Śledź IRIDE-MS1-EAG2-12 w czasie rzeczywistym z AllMySat

Download on the App Store